| time (UTC) | temp F | wind direction | speed knots | gust knots | rain 1hr in | rain 24hr in | rain mn in | humidity % | barometer mb |
| 20260904231555 | 69 | 325 | 0.0 | 0.0 | 0.00 | 0.00 | 0.01 | 58 | 1011.7 |
| 20260904230117 | 70 | 324 | 0.0 | 0.0 | 0.00 | 0.00 | 0.01 | 57 | 1011.6 |
| 20260904224548 | 71 | 323 | 0.0 | 0.0 | 0.00 | 0.00 | 0.01 | 57 | 1011.7 |
| 20260904223044 | 71 | 323 | 0.9 | 0.0 | 0.00 | 0.00 | 0.01 | 58 | 1011.5 |
| 20260904221539 | 71 | 328 | 0.9 | 0.0 | 0.00 | 0.00 | 0.01 | 57 | 1011.4 |
| 20260904220035 | 72 | 339 | 0.9 | 0.0 | 0.00 | 0.00 | 0.01 | 56 | 1011.2 |
| 20260904214531 | 73 | 302 | 1.7 | 0.0 | 0.00 | 0.00 | 0.01 | 55 | 1011.2 |
| 20260904213027 | 73 | 296 | 0.9 | 0.0 | 0.00 | 0.00 | 0.01 | 55 | 1011.2 |
| 20260904211522 | 73 | 331 | 0.9 | 0.0 | 0.00 | 0.00 | 0.01 | 56 | 1011.2 |
| 20260904210022 | 73 | 5 | 2.6 | 0.0 | 0.00 | 0.00 | 0.01 | 55 | 1011.4 |
| 20260904204521 | 74 | 337 | 1.7 | 0.0 | 0.00 | 0.00 | 0.01 | 54 | 1011.6 |
| 20260904203014 | 74 | 263 | 2.6 | 0.0 | 0.00 | 0.00 | 0.01 | 54 | 1011.5 |
| 20260904201509 | 74 | 285 | 3.5 | 0.0 | 0.00 | 0.00 | 0.01 | 54 | 1011.5 |
| 20260904200006 | 75 | 244 | 4.3 | 0.0 | 0.00 | 0.00 | 0.01 | 53 | 1011.4 |
| 20260904194608 | 75 | 282 | 3.5 | 0.0 | 0.00 | 0.00 | 0.01 | 52 | 1011.5 |
| 20260904193055 | 76 | 292 | 1.7 | 0.0 | 0.00 | 0.00 | 0.01 | 52 | 1011.5 |
| 20260904191551 | 75 | 281 | 2.6 | 0.0 | 0.00 | 0.00 | 0.01 | 52 | 1011.7 |
| 20260904190050 | 74 | 297 | 1.7 | 0.0 | 0.00 | 0.00 | 0.01 | 53 | 1011.8 |
| 20260904184543 | 74 | 309 | 1.7 | 0.0 | 0.00 | 0.00 | 0.01 | 53 | 1011.9 |
| 20260904183038 | 74 | 306 | 1.7 | 0.0 | 0.00 | 0.00 | 0.01 | 52 | 1012.2 |
| 20260904181535 | 73 | 350 | 1.7 | 0.0 | 0.00 | 0.00 | 0.01 | 53 | 1012.3 |
| 20260904180032 | 72 | 360 | 2.6 | 0.0 | 0.00 | 0.00 | 0.01 | 54 | 1012.3 |
| 20260904174527 | 74 | 304 | 2.6 | 0.0 | 0.00 | 0.00 | 0.01 | 53 | 1012.6 |
| 20260904173023 | 73 | 309 | 1.7 | 0.0 | 0.00 | 0.00 | 0.01 | 52 | 1012.6 |
| 20260904171520 | 72 | 336 | 2.6 | 0.0 | 0.00 | 0.00 | 0.01 | 53 | 1012.6 |
| 20260904170018 | 73 | 360 | 0.9 | 0.0 | 0.00 | 0.00 | 0.01 | 51 | 1012.5 |
| 20260904164516 | 72 | 344 | 1.7 | 0.0 | 0.00 | 0.00 | 0.01 | 51 | 1012.6 |
| 20260904163010 | 72 | 247 | 1.7 | 0.0 | 0.00 | 0.00 | 0.01 | 50 | 1012.3 |
| 20260904161505 | 71 | 360 | 4.3 | 0.0 | 0.00 | 0.00 | 0.01 | 50 | 1012.7 |
| 20260904160004 | 71 | 336 | 0.9 | 0.0 | 0.00 | 0.00 | 0.01 | 46 | 1012.8 |
| 20260904154600 | 71 | 323 | 0.9 | 0.0 | 0.00 | 0.00 | 0.01 | 44 | 1013.2 |
| 20260904153106 | 70 | 349 | 1.7 | 0.0 | 0.00 | 0.00 | 0.01 | 43 | 1013.2 |
| 20260904151552 | 70 | 13 | 0.9 | 0.0 | 0.00 | 0.00 | 0.01 | 39 | 1013.1 |
| 20260904144546 | 68 | 342 | 1.7 | 0.0 | 0.00 | 0.00 | 0.01 | 28 | 1013.5 |
| 20260904143040 | 68 | 261 | 0.9 | 0.0 | 0.00 | 0.00 | 0.01 | 20 | 1013.8 |
| 20260904141537 | 67 | 259 | 0.9 | 0.0 | 0.00 | 0.00 | 0.01 | 7 | 1013.6 |
| 20260904140034 | 66 | 268 | 0.0 | 0.0 | 0.00 | 0.00 | 0.01 | 100 | 1013.4 |
| 20260904134531 | 66 | 289 | 0.0 | 0.0 | 0.00 | 0.00 | 0.01 | 100 | 1013.5 |
| 20260904133025 | 65 | 290 | 0.9 | 0.0 | 0.00 | 0.00 | 0.01 | 100 | 1013.5 |
| 20260904131523 | 65 | 305 | 0.0 | 0.0 | 0.00 | 0.00 | 0.01 | 100 | 1013.5 |
| 20260904130035 | 65 | 309 | 0.9 | 0.0 | 0.00 | 0.00 | 0.01 | 100 | 1013.5 |
| 20260904124510 | 65 | 307 | 0.9 | 0.0 | 0.00 | 0.00 | 0.01 | 100 | 1013.4 |
| 20260904123015 | 65 | 280 | 1.7 | 0.0 | 0.00 | 0.00 | 0.01 | 100 | 1013.4 |
| 20260904121501 | 64 | 289 | 0.9 | 0.0 | 0.00 | 0.00 | 0.01 | 100 | 1013.1 |
| 20260904114554 | 0 | 0.0 | 0.0 | 0.00 | 0.00 | 0.01 | 1013.0 | ||
| 20260904113050 | 0 | 0.0 | 0.0 | 0.00 | 0.00 | 0.01 | 1012.9 | ||
| 20260904111544 | 64 | 298 | 0.0 | 0.0 | 0.00 | 0.00 | 0.01 | 100 | 1012.8 |
| 20260904104536 | 64 | 302 | 0.0 | 0.0 | 0.00 | 0.00 | 0.01 | 100 | 1012.5 |
| 20260904103032 | 64 | 302 | 0.0 | 0.0 | 0.00 | 0.00 | 0.01 | 100 | 1012.4 |
| 20260904101531 | 65 | 302 | 0.0 | 0.0 | 0.00 | 0.00 | 0.01 | 100 | 1012.2 |
| 20260904094522 | 65 | 310 | 0.0 | 0.0 | 0.00 | 0.00 | 0.01 | 100 | 1012.2 |
| 20260904093021 | 65 | 310 | 0.0 | 0.0 | 0.00 | 0.00 | 0.01 | 100 | 1012.4 |
| 20260904091519 | 65 | 310 | 0.0 | 0.0 | 0.00 | 0.00 | 0.01 | 100 | 1012.2 |
| 20260904084506 | 65 | 311 | 0.0 | 0.0 | 0.00 | 0.00 | 0.01 | 100 | 1012.1 |
| 20260904083001 | 65 | 311 | 0.0 | 0.0 | 0.00 | 0.00 | 0.00 | 100 | 1012.1 |
| 20260904081600 | 65 | 311 | 0.0 | 0.0 | 0.00 | 0.00 | 0.00 | 100 | 1011.9 |
| 20260904074549 | 65 | 311 | 0.0 | 0.0 | 0.00 | 0.00 | 0.00 | 100 | 1011.8 |
| 20260904073045 | 65 | 311 | 0.0 | 0.0 | 0.00 | 0.00 | 0.00 | 100 | 1011.8 |
| 20260904071540 | 65 | 311 | 0.0 | 0.0 | 0.00 | 0.00 | 0.00 | 100 | 1011.8 |
| 20260904064534 | 65 | 311 | 0.0 | 0.0 | 0.00 | 0.00 | 0.00 | 100 | 1011.7 |
| 20260904063030 | 66 | 311 | 0.0 | 0.0 | 0.00 | 0.00 | 0.00 | 100 | 1011.8 |
| 20260904061538 | 66 | 311 | 0.0 | 0.0 | 0.00 | 0.00 | 0.00 | 100 | 1012.3 |
| 20260904054522 | 65 | 311 | 0.0 | 0.0 | 0.00 | 0.00 | 0.00 | 100 | 1012.7 |
| 20260904053014 | 65 | 311 | 0.0 | 0.0 | 0.00 | 0.00 | 0.00 | 100 | 1012.7 |
| 20260904051510 | 66 | 311 | 0.0 | 0.0 | 0.00 | 0.00 | 0.00 | 100 | 1012.7 |
| 20260904044505 | 66 | 311 | 0.0 | 0.0 | 0.00 | 0.00 | 0.00 | 100 | 1012.6 |
| 20260904043107 | 66 | 311 | 0.0 | 0.0 | 0.00 | 0.00 | 0.00 | 100 | 1012.6 |
| 20260904041554 | 66 | 311 | 0.0 | 0.0 | 0.00 | 0.00 | 0.00 | 100 | 1012.9 |
| 20260904034547 | 66 | 311 | 0.0 | 0.0 | 0.00 | 0.00 | 0.08 | 100 | 1013.0 |
| 20260904033042 | 66 | 311 | 0.0 | 0.0 | 0.00 | 0.00 | 0.08 | 100 | 1013.0 |
| 20260904031537 | 66 | 311 | 0.0 | 0.0 | 0.00 | 0.00 | 0.08 | 100 | 1013.2 |
| 20260904024533 | 66 | 311 | 0.0 | 0.0 | 0.00 | 0.00 | 0.08 | 100 | 1013.3 |
| 20260904023028 | 66 | 311 | 0.0 | 0.0 | 0.00 | 0.00 | 0.08 | 100 | 1013.3 |
| 20260904021525 | 66 | 311 | 0.0 | 0.0 | 0.00 | 0.00 | 0.06 | 100 | 1013.5 |
| 20260904014515 | 66 | 311 | 0.0 | 0.0 | 0.00 | 0.00 | 0.06 | 100 | 1013.8 |
| 20260904013011 | 66 | 311 | 0.0 | 0.0 | 0.00 | 0.00 | 0.06 | 100 | 1013.7 |
| 20260904011507 | 66 | 311 | 0.0 | 0.0 | 0.00 | 0.00 | 0.06 | 100 | 1013.8 |
| 20260904004600 | 67 | 311 | 0.0 | 0.0 | 0.00 | 0.00 | 0.06 | 100 | 1013.5 |
| 20260904004501 | 67 | 311 | 0.0 | 0.0 | 0.00 | 0.00 | 0.06 | 100 | 1013.4 |
| 20260904003055 | 68 | 311 | 0.0 | 0.0 | 0.00 | 0.00 | 0.06 | 100 | 1013.5 |
| 20260904001553 | 68 | 311 | 0.0 | 0.0 | 0.00 | 0.00 | 0.06 | 100 | 1013.4 |
| 20260904000148 | 69 | 311 | 0.0 | 0.0 | 0.00 | 0.00 | 0.06 | 100 | 1013.4 |
| 20260903234543 | 70 | 311 | 0.0 | 0.0 | 0.00 | 0.00 | 0.06 | 100 | 1013.2 |
| 20260903233046 | 71 | 311 | 0.0 | 0.0 | 0.00 | 0.00 | 0.06 | 12 | 1013.3 |